User: anonymous   Login
Location: Ocean City
(38.3360°N, 75.0850°W)
Time: 19:47:44
(UTC-05:00)
Language:

BEESAT - Orbit

View from above orbital plane
View from above orbital plane
View from above satellite
View from above satellite

Ground track
Ground track

The orbit data is extracted from the following two-line orbital elements,

1 35933U 09051C   19315.45643387  .00000096  00000-0  32767-4 0  9991
2 35933  98.6009 127.6424 0006914  92.0098 268.1890 14.56411486538102
Epoch (UTC): 11 November 2019 10:57:15
Eccentricity: 0.0006914
inclination: 98.6009°
perigee height: 700 km
apogee height: 709 km
right ascension of ascending node: 127.6424°
argument of perigee: 92.0098°
revolutions per day: 14.56411486
mean anomaly at epoch: 268.1890°
orbit number at epoch: 53810

The dashed part of the orbit path shows where the satellite is in the earth's shadow,  

DLR